Year,Month,Day,Hour,Minute,Value (Times are PST for windspeed in km/hr)
2012,03,12,00,00,26.20
2012,03,12,00,01,23.60
2012,03,12,00,02,27.40
2012,03,12,00,03,32.50
2012,03,12,00,04,31.00
2012,03,12,00,05,22.90
2012,03,12,00,06,24.10
2012,03,12,00,07,25.20
2012,03,12,00,08,26.60
2012,03,12,00,09,27.80
2012,03,12,00,10,31.90
2012,03,12,00,11,25.00
2012,03,12,00,12,25.30
2012,03,12,00,13,31.20
2012,03,12,00,14,22.70
2012,03,12,00,15,15.10
2012,03,12,00,16,16.20
2012,03,12,00,17,24.90
2012,03,12,00,18,20.10
2012,03,12,00,19,23.90
2012,03,12,00,20,23.30
2012,03,12,00,21,24.00
2012,03,12,00,22,27.00
2012,03,12,00,23,26.40
2012,03,12,00,24,16.30
2012,03,12,00,25,24.90
2012,03,12,00,26,22.70
2012,03,12,00,27,24.20
2012,03,12,00,28,25.20
2012,03,12,00,29,23.70
2012,03,12,00,30,16.80
2012,03,12,00,31,17.20
2012,03,12,00,32,23.30
2012,03,12,00,33,21.50
2012,03,12,00,34,18.80
2012,03,12,00,35,23.80
2012,03,12,00,36,18.80
2012,03,12,00,37,17.40
2012,03,12,00,38,28.50
2012,03,12,00,39,28.50
2012,03,12,00,40,27.30
2012,03,12,00,41,24.70
2012,03,12,00,42,32.00
2012,03,12,00,43,23.20
2012,03,12,00,44,30.70
2012,03,12,00,45,20.00
2012,03,12,00,46,28.00
2012,03,12,00,47,28.00
2012,03,12,00,48,21.90
2012,03,12,00,49,27.00
2012,03,12,00,50,22.80
2012,03,12,00,51,23.80
2012,03,12,00,52,20.40
2012,03,12,00,53,21.90
2012,03,12,00,54,14.30
2012,03,12,00,55,17.70
2012,03,12,00,56,22.40
2012,03,12,00,57,12.60
2012,03,12,00,58,23.80
2012,03,12,00,59,25.40
2012,03,12,01,00,21.60
2012,03,12,01,01,22.40
2012,03,12,01,02,25.90
2012,03,12,01,03,27.50
2012,03,12,01,04,23.10
2012,03,12,01,05,24.90
2012,03,12,01,06,28.10
2012,03,12,01,07,25.70
2012,03,12,01,08,19.70
2012,03,12,01,09,22.80
2012,03,12,01,10,19.40
2012,03,12,01,11,21.80
2012,03,12,01,12,20.00
2012,03,12,01,13,27.90
2012,03,12,01,14,22.40
2012,03,12,01,15,19.70
2012,03,12,01,16,24.50
2012,03,12,01,17,20.40
2012,03,12,01,18,27.80
2012,03,12,01,19,26.10
2012,03,12,01,20,26.20
2012,03,12,01,21,25.80
2012,03,12,01,22,18.30
2012,03,12,01,23,21.60
2012,03,12,01,24,13.40
2012,03,12,01,25,20.60
2012,03,12,01,26,21.30
2012,03,12,01,27,28.80
2012,03,12,01,28,25.60
2012,03,12,01,29,39.20
2012,03,12,01,30,33.70
2012,03,12,01,31,24.40
2012,03,12,01,32,30.20
2012,03,12,01,33,27.40
2012,03,12,01,34,31.10
2012,03,12,01,35,20.20
2012,03,12,01,36,28.70
2012,03,12,01,37,21.90
2012,03,12,01,38,17.70
2012,03,12,01,39,23.00
2012,03,12,01,40,23.40
2012,03,12,01,41,18.60
2012,03,12,01,42,24.40
2012,03,12,01,43,21.00
2012,03,12,01,44,29.80
2012,03,12,01,45,33.10
2012,03,12,01,46,34.80
2012,03,12,01,47,26.50
2012,03,12,01,48,30.30
2012,03,12,01,49,27.20
2012,03,12,01,50,29.30
2012,03,12,01,51,25.90
2012,03,12,01,52,24.60
2012,03,12,01,53,30.30
2012,03,12,01,54,19.60
2012,03,12,01,55,28.80
2012,03,12,01,56,27.10
2012,03,12,01,57,29.00
2012,03,12,01,58,24.10
2012,03,12,01,59,27.70
2012,03,12,02,00,24.50
2012,03,12,02,01,17.20
2012,03,12,02,02,22.50
2012,03,12,02,03,22.20
2012,03,12,02,04,24.40
2012,03,12,02,05,29.80
2012,03,12,02,06,19.00
2012,03,12,02,07,26.10
2012,03,12,02,08,19.60
2012,03,12,02,09,27.80
2012,03,12,02,10,24.40
2012,03,12,02,11,30.00
2012,03,12,02,12,32.50
2012,03,12,02,13,33.40
2012,03,12,02,14,25.60
2012,03,12,02,15,25.30
2012,03,12,02,16,20.10
2012,03,12,02,17,29.00
2012,03,12,02,18,26.30
2012,03,12,02,19,30.70
2012,03,12,02,20,30.50
2012,03,12,02,21,25.00
2012,03,12,02,22,30.70
2012,03,12,02,23,27.10
2012,03,12,02,24,25.70
2012,03,12,02,25,21.60
2012,03,12,02,26,18.90
2012,03,12,02,27,30.30
2012,03,12,02,28,18.90
2012,03,12,02,29,19.80
2012,03,12,02,30,21.40
2012,03,12,02,31,22.40
2012,03,12,02,32,20.50
2012,03,12,02,33,23.70
2012,03,12,02,34,18.70
2012,03,12,02,35,19.90
2012,03,12,02,36,29.80
2012,03,12,02,37,30.50
2012,03,12,02,38,24.10
2012,03,12,02,39,29.80
2012,03,12,02,40,29.40
2012,03,12,02,41,26.30
2012,03,12,02,42,29.40
2012,03,12,02,43,31.20
2012,03,12,02,44,24.50
2012,03,12,02,45,26.80
2012,03,12,02,46,23.00
2012,03,12,02,47,34.40
2012,03,12,02,48,30.10
2012,03,12,02,49,32.50
2012,03,12,02,50,28.30
2012,03,12,02,51,27.70
2012,03,12,02,52,28.40
2012,03,12,02,53,31.90
2012,03,12,02,54,31.40
2012,03,12,02,55,40.00
2012,03,12,02,56,25.80
2012,03,12,02,57,19.50
2012,03,12,02,58,17.10
2012,03,12,02,59,28.60
2012,03,12,03,00,28.60
2012,03,12,03,01,23.30
2012,03,12,03,02,27.40
2012,03,12,03,03,28.20
2012,03,12,03,04,28.30
2012,03,12,03,05,31.90
2012,03,12,03,06,26.80
2012,03,12,03,07,25.90
2012,03,12,03,08,23.30
2012,03,12,03,09,29.80
2012,03,12,03,10,34.40
2012,03,12,03,11,27.60
2012,03,12,03,12,28.50
2012,03,12,03,13,34.00
2012,03,12,03,14,32.40
2012,03,12,03,15,35.90
2012,03,12,03,16,25.90
2012,03,12,03,17,27.00
2012,03,12,03,18,24.80
2012,03,12,03,19,27.80
2012,03,12,03,20,24.80
2012,03,12,03,21,25.40
2012,03,12,03,22,34.10
2012,03,12,03,23,27.40
2012,03,12,03,24,23.40
2012,03,12,03,25,23.30
2012,03,12,03,26,24.80
2012,03,12,03,27,31.40
2012,03,12,03,28,23.50
2012,03,12,03,29,38.80
2012,03,12,03,30,40.20
2012,03,12,03,31,24.10
2012,03,12,03,32,25.90
2012,03,12,03,33,33.70
2012,03,12,03,34,43.70
2012,03,12,03,35,39.70
2012,03,12,03,36,37.70
2012,03,12,03,37,34.00
2012,03,12,03,38,33.30
2012,03,12,03,39,38.80
2012,03,12,03,40,27.90
2012,03,12,03,41,29.50
2012,03,12,03,42,27.80
2012,03,12,03,43,33.60
2012,03,12,03,44,29.80
2012,03,12,03,45,36.10
2012,03,12,03,46,30.90
2012,03,12,03,47,31.10
2012,03,12,03,48,27.80
2012,03,12,03,49,36.00
2012,03,12,03,50,41.60
2012,03,12,03,51,23.60
2012,03,12,03,52,35.90
2012,03,12,03,53,35.50
2012,03,12,03,54,32.10
2012,03,12,03,55,40.70
2012,03,12,03,56,31.10
2012,03,12,03,57,33.20
2012,03,12,03,58,33.10
2012,03,12,03,59,32.10
2012,03,12,04,00,32.70
2012,03,12,04,01,35.20
2012,03,12,04,02,40.00
2012,03,12,04,03,32.30
2012,03,12,04,04,36.40
2012,03,12,04,05,26.70
2012,03,12,04,06,38.50
2012,03,12,04,07,31.90
2012,03,12,04,08,43.10
2012,03,12,04,09,37.50
2012,03,12,04,10,27.20
2012,03,12,04,11,45.90
2012,03,12,04,12,42.30
2012,03,12,04,13,45.90
2012,03,12,04,14,32.80
2012,03,12,04,15,35.10
2012,03,12,04,16,29.60
2012,03,12,04,17,38.60
2012,03,12,04,18,29.00
2012,03,12,04,19,34.70
2012,03,12,04,20,40.20
2012,03,12,04,21,33.60
2012,03,12,04,22,31.10
2012,03,12,04,23,36.30
2012,03,12,04,24,33.20
2012,03,12,04,25,38.10
2012,03,12,04,26,38.00
2012,03,12,04,27,33.70
2012,03,12,04,28,26.30
2012,03,12,04,29,31.40
2012,03,12,04,30,37.10
2012,03,12,04,31,38.80
2012,03,12,04,32,41.80
2012,03,12,04,33,33.30
2012,03,12,04,34,31.50
2012,03,12,04,35,31.10
2012,03,12,04,36,36.00
2012,03,12,04,37,32.40
2012,03,12,04,38,41.20
2012,03,12,04,39,33.20
2012,03,12,04,40,42.20
2012,03,12,04,41,36.30
2012,03,12,04,42,40.60
2012,03,12,04,43,34.00
2012,03,12,04,44,35.20
2012,03,12,04,45,41.50
2012,03,12,04,46,30.00
2012,03,12,04,47,35.20
2012,03,12,04,48,35.90
2012,03,12,04,49,32.90
2012,03,12,04,50,28.60
2012,03,12,04,51,35.70
2012,03,12,04,52,38.10
2012,03,12,04,53,32.40
2012,03,12,04,54,35.70
2012,03,12,04,55,30.20
2012,03,12,04,56,35.70
2012,03,12,04,57,36.10
2012,03,12,04,58,35.40
2012,03,12,04,59,31.30
2012,03,12,05,00,30.10
2012,03,12,05,01,27.90
2012,03,12,05,02,40.40
2012,03,12,05,03,34.40
2012,03,12,05,04,37.90
2012,03,12,05,05,36.80
2012,03,12,05,06,37.10
2012,03,12,05,07,38.60
2012,03,12,05,08,36.10
2012,03,12,05,09,33.80
2012,03,12,05,10,37.40
2012,03,12,05,11,46.10
2012,03,12,05,12,43.40
2012,03,12,05,13,47.00
2012,03,12,05,14,36.90
2012,03,12,05,15,27.40
2012,03,12,05,16,31.20
2012,03,12,05,17,31.90
2012,03,12,05,18,32.00
2012,03,12,05,19,39.00
2012,03,12,05,20,33.70
2012,03,12,05,21,33.80
2012,03,12,05,22,32.30
2012,03,12,05,23,32.80
2012,03,12,05,24,25.00
2012,03,12,05,25,46.40
2012,03,12,05,26,38.20
2012,03,12,05,27,37.50
2012,03,12,05,28,33.50
2012,03,12,05,29,30.90
2012,03,12,05,30,46.10
2012,03,12,05,31,42.30
2012,03,12,05,32,26.90
2012,03,12,05,33,38.40
2012,03,12,05,34,43.20
2012,03,12,05,35,44.70
2012,03,12,05,36,40.80
2012,03,12,05,37,38.70
2012,03,12,05,38,30.30
2012,03,12,05,39,34.40
2012,03,12,05,40,34.10
2012,03,12,05,41,33.50
2012,03,12,05,42,40.80
2012,03,12,05,43,40.70
2012,03,12,05,44,28.60
2012,03,12,05,45,29.80
2012,03,12,05,46,32.00
2012,03,12,05,47,30.70
2012,03,12,05,48,26.50
2012,03,12,05,49,35.70
2012,03,12,05,50,39.80
2012,03,12,05,51,41.80
2012,03,12,05,52,31.60
2012,03,12,05,53,29.70
2012,03,12,05,54,42.90
2012,03,12,05,55,29.70
2012,03,12,05,56,40.60
2012,03,12,05,57,33.70
2012,03,12,05,58,34.40
2012,03,12,05,59,26.20
2012,03,12,06,00,32.10
2012,03,12,06,01,27.40
2012,03,12,06,02,35.70
2012,03,12,06,03,38.90
2012,03,12,06,04,36.90
2012,03,12,06,05,29.90
2012,03,12,06,06,31.50
2012,03,12,06,07,37.00
2012,03,12,06,08,41.10
2012,03,12,06,09,27.90
2012,03,12,06,10,29.30
2012,03,12,06,11,33.70
2012,03,12,06,12,29.10
2012,03,12,06,13,38.00
2012,03,12,06,14,34.80
2012,03,12,06,15,37.90
2012,03,12,06,16,35.30
2012,03,12,06,17,35.60
2012,03,12,06,18,31.30
2012,03,12,06,19,36.50
2012,03,12,06,20,36.50
2012,03,12,06,21,41.60
2012,03,12,06,22,36.50
2012,03,12,06,23,38.20
2012,03,12,06,24,31.60
2012,03,12,06,25,30.30
2012,03,12,06,26,40.70
2012,03,12,06,27,35.30
2012,03,12,06,28,32.50
2012,03,12,06,29,34.50
2012,03,12,06,30,36.80
2012,03,12,06,31,37.30
2012,03,12,06,32,31.20
2012,03,12,06,33,34.00
2012,03,12,06,34,34.40
2012,03,12,06,35,35.90
2012,03,12,06,36,33.70
2012,03,12,06,37,27.10
2012,03,12,06,38,36.70
2012,03,12,06,39,38.00
2012,03,12,06,40,45.10
2012,03,12,06,41,45.90
2012,03,12,06,42,42.40
2012,03,12,06,43,31.30
2012,03,12,06,44,31.90
2012,03,12,06,45,34.40
2012,03,12,06,46,44.00
2012,03,12,06,47,30.40
2012,03,12,06,48,47.20
2012,03,12,06,49,40.50
2012,03,12,06,50,36.90
2012,03,12,06,51,37.20
2012,03,12,06,52,31.50
2012,03,12,06,53,41.60
2012,03,12,06,54,46.60
2012,03,12,06,55,34.30
2012,03,12,06,56,36.40
2012,03,12,06,57,37.30
2012,03,12,06,58,33.20
2012,03,12,06,59,31.60
2012,03,12,07,00,39.80
2012,03,12,07,01,33.00
2012,03,12,07,02,40.80
2012,03,12,07,03,33.40
2012,03,12,07,04,33.40
2012,03,12,07,05,43.20
2012,03,12,07,06,32.90
2012,03,12,07,07,41.10
2012,03,12,07,08,44.70
2012,03,12,07,09,36.00
2012,03,12,07,10,29.00
2012,03,12,07,11,27.60
2012,03,12,07,12,45.50
2012,03,12,07,13,30.90
2012,03,12,07,14,26.80
2012,03,12,07,15,37.40
2012,03,12,07,16,31.30
2012,03,12,07,17,26.20
2012,03,12,07,18,30.70
2012,03,12,07,19,32.30
2012,03,12,07,20,37.70
2012,03,12,07,21,38.80
2012,03,12,07,22,35.10
2012,03,12,07,23,36.10
2012,03,12,07,24,31.40
2012,03,12,07,25,34.50
2012,03,12,07,26,44.10
2012,03,12,07,27,36.40
2012,03,12,07,28,37.00
2012,03,12,07,29,29.50
2012,03,12,07,30,31.80
2012,03,12,07,31,34.40
2012,03,12,07,32,51.00
2012,03,12,07,33,37.30
2012,03,12,07,34,36.90
2012,03,12,07,35,47.10
2012,03,12,07,36,38.20
2012,03,12,07,37,17.60
2012,03,12,07,38,44.30
2012,03,12,07,39,34.60
2012,03,12,07,40,35.20
2012,03,12,07,41,37.40
2012,03,12,07,42,40.60
2012,03,12,07,43,41.10
2012,03,12,07,44,47.00
2012,03,12,07,45,27.80
2012,03,12,07,46,31.50
2012,03,12,07,47,46.80
2012,03,12,07,48,35.60
2012,03,12,07,49,33.40
2012,03,12,07,50,27.10
2012,03,12,07,51,37.00
2012,03,12,07,52,43.40
2012,03,12,07,53,47.20
2012,03,12,07,54,38.80
2012,03,12,07,55,43.60
2012,03,12,07,56,40.70
2012,03,12,07,57,46.40
2012,03,12,07,58,33.60
2012,03,12,07,59,35.20
2012,03,12,08,00,41.80
2012,03,12,08,01,28.30
2012,03,12,08,02,26.10
2012,03,12,08,03,40.80
2012,03,12,08,04,33.50
2012,03,12,08,05,34.50
2012,03,12,08,06,41.30
2012,03,12,08,07,33.70
2012,03,12,08,08,38.50
2012,03,12,08,09,49.40
2012,03,12,08,10,42.00
2012,03,12,08,11,38.20
2012,03,12,08,12,45.50
2012,03,12,08,13,42.50
2012,03,12,08,14,35.70
2012,03,12,08,15,45.60
2012,03,12,08,16,42.20
2012,03,12,08,17,31.10
2012,03,12,08,18,44.70
2012,03,12,08,19,39.40
2012,03,12,08,20,35.00
2012,03,12,08,21,29.50
2012,03,12,08,22,41.50
2012,03,12,08,23,27.00
2012,03,12,08,24,36.80
2012,03,12,08,25,35.40
2012,03,12,08,26,48.90
2012,03,12,08,27,29.30
2012,03,12,08,28,36.80
2012,03,12,08,29,45.90
2012,03,12,08,30,41.00
2012,03,12,08,31,29.80
2012,03,12,08,32,36.00
2012,03,12,08,33,29.50
2012,03,12,08,34,40.90
2012,03,12,08,35,27.90
2012,03,12,08,36,38.90
2012,03,12,08,37,33.20
2012,03,12,08,38,41.20
2012,03,12,08,39,39.20
2012,03,12,08,40,42.60
2012,03,12,08,41,34.70
2012,03,12,08,42,37.60
2012,03,12,08,43,27.30
2012,03,12,08,44,38.30
2012,03,12,08,45,33.90
2012,03,12,08,46,36.50
2012,03,12,08,47,29.00
2012,03,12,08,48,37.50
2012,03,12,08,49,32.30
2012,03,12,08,50,38.60
2012,03,12,08,51,38.20
2012,03,12,08,52,46.60
2012,03,12,08,53,43.00
2012,03,12,08,54,35.40
2012,03,12,08,55,38.90
2012,03,12,08,56,46.80
2012,03,12,08,57,34.80
2012,03,12,08,58,42.20
2012,03,12,08,59,34.70
2012,03,12,09,00,43.90
2012,03,12,09,01,33.50
2012,03,12,09,02,36.40
2012,03,12,09,03,30.80
2012,03,12,09,04,41.70
2012,03,12,09,05,43.70
2012,03,12,09,06,43.50
2012,03,12,09,07,36.80
2012,03,12,09,08,44.70
2012,03,12,09,09,33.70
2012,03,12,09,10,48.00
2012,03,12,09,11,41.60
2012,03,12,09,12,34.00
2012,03,12,09,13,31.70
2012,03,12,09,14,49.60
2012,03,12,09,15,41.10
2012,03,12,09,16,39.60
2012,03,12,09,17,49.00
2012,03,12,09,18,44.40
2012,03,12,09,19,37.40
2012,03,12,09,20,45.10
2012,03,12,09,21,41.30
2012,03,12,09,22,36.80
2012,03,12,09,23,25.50
2012,03,12,09,24,45.80
2012,03,12,09,25,39.30
2012,03,12,09,26,37.70
2012,03,12,09,27,46.90
2012,03,12,09,28,37.30
2012,03,12,09,29,45.20
2012,03,12,09,30,40.80
2012,03,12,09,31,29.80
2012,03,12,09,32,39.00
2012,03,12,09,33,43.90
2012,03,12,09,34,42.00
2012,03,12,09,35,43.20
2012,03,12,09,36,42.00
2012,03,12,09,37,41.00
2012,03,12,09,38,34.00
2012,03,12,09,39,34.00
2012,03,12,09,40,42.00
2012,03,12,09,41,32.80
2012,03,12,09,42,39.70
2012,03,12,09,43,44.30
2012,03,12,09,44,31.70
2012,03,12,09,45,39.30
2012,03,12,09,46,38.50
2012,03,12,09,47,42.70
2012,03,12,09,48,43.50
2012,03,12,09,49,43.00
2012,03,12,09,50,42.30
2012,03,12,09,51,36.10
2012,03,12,09,52,34.10
2012,03,12,09,53,37.90
2012,03,12,09,54,51.60
2012,03,12,09,55,42.20
2012,03,12,09,56,43.50
2012,03,12,09,57,30.70
2012,03,12,09,58,44.10
2012,03,12,09,59,46.90
2012,03,12,10,00,45.10
2012,03,12,10,01,34.00
2012,03,12,10,02,36.50
2012,03,12,10,03,30.00
2012,03,12,10,04,37.00
2012,03,12,10,05,42.70
2012,03,12,10,06,28.70
2012,03,12,10,07,31.50
2012,03,12,10,08,36.40
2012,03,12,10,09,31.20
2012,03,12,10,10,26.00
2012,03,12,10,11,28.70
2012,03,12,10,12,22.60
2012,03,12,10,13,21.90
2012,03,12,10,14,18.50
2012,03,12,10,15,21.40
2012,03,12,10,16,36.20
2012,03,12,10,17,25.40
2012,03,12,10,18,24.70
2012,03,12,10,19,29.10
2012,03,12,10,20,39.10
2012,03,12,10,21,29.60
2012,03,12,10,22,24.10
2012,03,12,10,23,23.20
2012,03,12,10,24,25.20
2012,03,12,10,25,32.00
2012,03,12,10,26,22.00
2012,03,12,10,27,29.30
2012,03,12,10,28,30.70
2012,03,12,10,29,24.60
2012,03,12,10,30,34.00
2012,03,12,10,31,38.60
2012,03,12,10,32,34.60
2012,03,12,10,33,36.20
2012,03,12,10,34,34.00
2012,03,12,10,35,23.40
2012,03,12,10,36,32.00
2012,03,12,10,37,29.50
2012,03,12,10,38,21.80
2012,03,12,10,39,23.90
2012,03,12,10,40,25.70
2012,03,12,10,41,26.50
2012,03,12,10,42,17.20
2012,03,12,10,43,25.00
2012,03,12,10,44,23.40
2012,03,12,10,45,21.40
2012,03,12,10,46,34.10
2012,03,12,10,47,24.50
2012,03,12,10,48,21.30
2012,03,12,10,49,19.50
2012,03,12,10,50,27.20
2012,03,12,10,51,24.10
2012,03,12,10,52,25.40
2012,03,12,10,53,28.20
2012,03,12,10,54,25.00
2012,03,12,10,55,23.40
2012,03,12,10,56,21.60
2012,03,12,10,57,21.00
2012,03,12,10,58,21.20
2012,03,12,10,59,19.60
2012,03,12,11,00,29.80
2012,03,12,11,01,28.20
2012,03,12,11,02,26.00
2012,03,12,11,03,22.30
2012,03,12,11,04,23.00
2012,03,12,11,05,22.50
2012,03,12,11,06,29.60
2012,03,12,11,07,23.30
2012,03,12,11,08,17.60
2012,03,12,11,09,22.50
2012,03,12,11,10,27.50
2012,03,12,11,11,26.20
2012,03,12,11,12,22.00
2012,03,12,11,13,21.00
2012,03,12,11,14,25.50
2012,03,12,11,15,30.70
2012,03,12,11,16,20.00
2012,03,12,11,17,21.50
2012,03,12,11,18,26.70
2012,03,12,11,19,27.40
2012,03,12,11,20,24.60
2012,03,12,11,21,25.70
2012,03,12,11,22,19.50
2012,03,12,11,23,17.10
2012,03,12,11,24,27.20
2012,03,12,11,25,25.80
2012,03,12,11,26,30.80
2012,03,12,11,27,22.80
2012,03,12,11,28,24.50
2012,03,12,11,29,27.50
2012,03,12,11,30,26.20
2012,03,12,11,31,31.30
2012,03,12,11,32,24.50
2012,03,12,11,33,26.00
2012,03,12,11,34,27.70
2012,03,12,11,35,18.30
2012,03,12,11,36,16.70
2012,03,12,11,37,23.70
2012,03,12,11,38,18.00
2012,03,12,11,39,24.00
2012,03,12,11,40,20.20
2012,03,12,11,41,19.90
2012,03,12,11,42,26.30
2012,03,12,11,43,20.20
2012,03,12,11,44,20.90
2012,03,12,11,45,19.30
2012,03,12,11,46,16.30
2012,03,12,11,47,20.80
2012,03,12,11,48,19.30
2012,03,12,11,49,19.30
2012,03,12,11,50,17.10
2012,03,12,11,51,19.50
2012,03,12,11,52,15.20
2012,03,12,11,53,20.30
2012,03,12,11,54,23.20
2012,03,12,11,55,20.80
2012,03,12,11,56,20.40
2012,03,12,11,57,23.90
2012,03,12,11,58,22.30
2012,03,12,11,59,27.80
2012,03,12,12,00,21.70
2012,03,12,12,01,21.60
2012,03,12,12,02,29.10
2012,03,12,12,03,26.60
2012,03,12,12,04,24.40
2012,03,12,12,05,19.60
2012,03,12,12,06,21.50
2012,03,12,12,07,18.20
2012,03,12,12,08,19.70
2012,03,12,12,09,18.60
2012,03,12,12,10,28.20
2012,03,12,12,11,21.80
2012,03,12,12,12,22.80
2012,03,12,12,13,22.30
2012,03,12,12,14,21.20
2012,03,12,12,15,22.50
2012,03,12,12,16,24.50
2012,03,12,12,17,18.20
2012,03,12,12,18,11.80
2012,03,12,12,19,12.50
2012,03,12,12,20,17.60
2012,03,12,12,21,16.90
2012,03,12,12,22,18.00
2012,03,12,12,23,14.00
2012,03,12,12,24,20.90
2012,03,12,12,25,12.70
2012,03,12,12,26,18.20
2012,03,12,12,27,18.10
2012,03,12,12,28,17.00
2012,03,12,12,29,16.00
2012,03,12,12,30,15.90
2012,03,12,12,31,16.70
2012,03,12,12,32,13.90
2012,03,12,12,33,15.50
2012,03,12,12,34,12.30
2012,03,12,12,35,8.50
2012,03,12,12,36,10.90
2012,03,12,12,37,11.40
2012,03,12,12,38,9.70
2012,03,12,12,39,9.30
2012,03,12,12,40,11.30
2012,03,12,12,41,15.00
2012,03,12,12,42,13.00
2012,03,12,12,43,14.10
2012,03,12,12,44,10.00
2012,03,12,12,45,7.60
2012,03,12,12,46,9.70
2012,03,12,12,47,12.10
2012,03,12,12,48,13.00
2012,03,12,12,49,12.60
2012,03,12,12,50,8.30
2012,03,12,12,51,8.10
2012,03,12,12,52,6.40
2012,03,12,12,53,3.30
2012,03,12,12,54,4.40
2012,03,12,12,55,4.20
2012,03,12,12,56,6.70
2012,03,12,12,57,7.50
2012,03,12,12,58,5.50
2012,03,12,12,59,12.50
2012,03,12,13,00,12.00
2012,03,12,13,01,8.10
2012,03,12,13,02,4.90
2012,03,12,13,03,9.90
2012,03,12,13,04,5.90
2012,03,12,13,05,7.20
2012,03,12,13,06,4.90
2012,03,12,13,07,4.40
2012,03,12,13,08,5.20
2012,03,12,13,09,4.70
2012,03,12,13,10,6.60
2012,03,12,13,11,5.60
2012,03,12,13,12,4.00
2012,03,12,13,13,2.70
2012,03,12,13,14,1.40
2012,03,12,13,15,4.60
2012,03,12,13,16,2.40
2012,03,12,13,17,2.60
2012,03,12,13,18,4.30
2012,03,12,13,19,4.70
2012,03,12,13,20,3.10
2012,03,12,13,21,2.20
2012,03,12,13,22,1.40
2012,03,12,13,23,2.50
2012,03,12,13,24,4.50
2012,03,12,13,25,2.50
2012,03,12,13,26,2.60
2012,03,12,13,27,2.20
2012,03,12,13,28,0.30
2012,03,12,13,29,1.70
2012,03,12,13,30,4.30
2012,03,12,13,31,2.00
2012,03,12,13,32,4.00
2012,03,12,13,33,3.40
2012,03,12,13,34,1.00
2012,03,12,13,35,1.70
2012,03,12,13,36,1.00
2012,03,12,13,37,1.70
2012,03,12,13,38,3.50
2012,03,12,13,39,0.40
2012,03,12,13,40,0.60
2012,03,12,13,41,3.00
2012,03,12,13,42,1.80
2012,03,12,13,43,1.60
2012,03,12,13,44,1.50
2012,03,12,13,45,4.40
2012,03,12,13,46,3.10
2012,03,12,13,47,1.30
2012,03,12,13,48,0.50
2012,03,12,13,49,0.60
2012,03,12,13,50,0.10
2012,03,12,13,51,0.50
2012,03,12,13,52,1.40
2012,03,12,13,53,0.10
2012,03,12,13,54,2.70
2012,03,12,13,55,3.40
2012,03,12,13,56,4.60
2012,03,12,13,57,4.40
2012,03,12,13,58,3.30
2012,03,12,13,59,0.70
2012,03,12,14,00,1.00
2012,03,12,14,01,1.20
2012,03,12,14,02,0.80
2012,03,12,14,03,3.60
2012,03,12,14,04,3.50
2012,03,12,14,05,3.10
2012,03,12,14,06,3.60
2012,03,12,14,07,1.50
2012,03,12,14,08,2.50
2012,03,12,14,09,0.60
2012,03,12,14,10,0.20
2012,03,12,14,11,0.00
2012,03,12,14,12,1.20
2012,03,12,14,13,0.80
2012,03,12,14,14,2.50
2012,03,12,14,15,4.70
2012,03,12,14,16,4.10
2012,03,12,14,17,0.50
2012,03,12,14,18,1.20
2012,03,12,14,19,0.30
2012,03,12,14,20,1.20
2012,03,12,14,21,4.30
2012,03,12,14,22,3.60
2012,03,12,14,23,1.60
2012,03,12,14,24,1.00
2012,03,12,14,25,2.90
2012,03,12,14,26,2.60
2012,03,12,14,27,4.50
2012,03,12,14,28,2.70
2012,03,12,14,29,1.70
2012,03,12,14,30,2.30
2012,03,12,14,31,7.50
2012,03,12,14,32,3.90
2012,03,12,14,33,2.60
2012,03,12,14,34,2.80
2012,03,12,14,35,2.80
2012,03,12,14,36,7.90
2012,03,12,14,37,8.50
2012,03,12,14,38,9.50
2012,03,12,14,39,9.80
2012,03,12,14,40,8.60
2012,03,12,14,41,8.40
2012,03,12,14,42,7.60
2012,03,12,14,43,4.80
2012,03,12,14,44,5.20
2012,03,12,14,45,2.20
2012,03,12,14,46,3.90
2012,03,12,14,47,2.10
2012,03,12,14,48,3.90
2012,03,12,14,49,4.60
2012,03,12,14,50,2.60
2012,03,12,14,51,3.10
2012,03,12,14,52,3.00
2012,03,12,14,53,2.10
2012,03,12,14,54,0.10
2012,03,12,14,55,0.00
2012,03,12,14,56,0.20
2012,03,12,14,57,2.00
2012,03,12,14,58,2.30
2012,03,12,14,59,3.40
2012,03,12,15,00,1.80
2012,03,12,15,01,0.10
2012,03,12,15,02,0.00
2012,03,12,15,03,0.00
2012,03,12,15,04,0.00
2012,03,12,15,05,0.50
2012,03,12,15,06,1.00
2012,03,12,15,07,3.10
2012,03,12,15,08,1.40
2012,03,12,15,09,0.10
2012,03,12,15,10,0.00
2012,03,12,15,11,0.10
2012,03,12,15,12,0.00
2012,03,12,15,13,0.20
2012,03,12,15,14,0.10
2012,03,12,15,15,1.00
2012,03,12,15,16,0.00
2012,03,12,15,17,0.00
2012,03,12,15,18,0.10
2012,03,12,15,19,0.00
2012,03,12,15,20,0.00
2012,03,12,15,21,0.00
2012,03,12,15,22,0.00
2012,03,12,15,23,0.00
2012,03,12,15,24,0.60
2012,03,12,15,25,0.50
2012,03,12,15,26,0.00
2012,03,12,15,27,0.70
2012,03,12,15,28,0.20
2012,03,12,15,29,0.00
2012,03,12,15,30,0.10
2012,03,12,15,31,0.60
2012,03,12,15,32,1.20
2012,03,12,15,33,0.00
2012,03,12,15,34,0.00
2012,03,12,15,35,0.00
2012,03,12,15,36,0.00
2012,03,12,15,37,0.00
2012,03,12,15,38,0.00
2012,03,12,15,39,0.00
2012,03,12,15,40,0.00
2012,03,12,15,41,0.00
2012,03,12,15,42,0.00
2012,03,12,15,43,0.00
2012,03,12,15,44,0.00
2012,03,12,15,45,0.00
2012,03,12,15,46,0.00
2012,03,12,15,47,0.00
2012,03,12,15,48,0.00
2012,03,12,15,49,0.00
2012,03,12,15,50,0.00
2012,03,12,15,51,0.10
2012,03,12,15,52,0.30
2012,03,12,15,53,0.70
2012,03,12,15,54,0.10
2012,03,12,15,55,0.10
2012,03,12,15,56,0.00
2012,03,12,15,57,0.10
2012,03,12,15,58,0.00
2012,03,12,15,59,0.00
2012,03,12,16,00,2.10
2012,03,12,16,01,1.40
2012,03,12,16,02,2.90
2012,03,12,16,03,0.60
2012,03,12,16,04,0.80
2012,03,12,16,05,0.00
2012,03,12,16,06,0.00
2012,03,12,16,07,0.50
2012,03,12,16,08,0.00
2012,03,12,16,09,0.00
2012,03,12,16,10,0.00
2012,03,12,16,11,0.00
2012,03,12,16,12,0.00
2012,03,12,16,13,0.00
2012,03,12,16,14,0.00
2012,03,12,16,15,0.00
2012,03,12,16,16,0.00
2012,03,12,16,17,0.00
2012,03,12,16,18,0.00
2012,03,12,16,19,0.00
2012,03,12,16,20,0.00
2012,03,12,16,21,0.00
2012,03,12,16,22,0.30
2012,03,12,16,23,0.00
2012,03,12,16,24,0.00
2012,03,12,16,25,0.00
2012,03,12,16,26,0.00
2012,03,12,16,27,0.00
2012,03,12,16,28,0.00
2012,03,12,16,29,0.00
2012,03,12,16,30,0.00
2012,03,12,16,31,0.00
2012,03,12,16,32,0.00
2012,03,12,16,33,0.20
2012,03,12,16,34,0.50
2012,03,12,16,35,0.30
2012,03,12,16,36,0.10
2012,03,12,16,37,0.30
2012,03,12,16,38,0.20
2012,03,12,16,39,0.70
2012,03,12,16,40,0.40
2012,03,12,16,41,0.20
2012,03,12,16,42,0.00
2012,03,12,16,43,0.00
2012,03,12,16,44,0.00
2012,03,12,16,45,0.00
2012,03,12,16,46,0.00
2012,03,12,16,47,0.00
2012,03,12,16,48,0.00
2012,03,12,16,49,0.00
2012,03,12,16,50,0.00
2012,03,12,16,51,0.00
2012,03,12,16,52,0.00
2012,03,12,16,53,0.10
2012,03,12,16,54,0.10
2012,03,12,16,55,0.20
2012,03,12,16,56,0.10
2012,03,12,16,57,0.00
2012,03,12,16,58,0.00
2012,03,12,16,59,0.00
2012,03,12,17,00,0.00
2012,03,12,17,01,0.00
2012,03,12,17,02,0.00
2012,03,12,17,03,0.00
2012,03,12,17,04,0.00
2012,03,12,17,05,1.60
2012,03,12,17,06,0.20
2012,03,12,17,07,1.00
2012,03,12,17,08,0.10
2012,03,12,17,09,0.00
2012,03,12,17,10,0.00
2012,03,12,17,11,2.70
2012,03,12,17,12,4.70
2012,03,12,17,13,2.20
2012,03,12,17,14,3.30
2012,03,12,17,15,0.00
2012,03,12,17,16,2.10
2012,03,12,17,17,4.40
2012,03,12,17,18,2.70
2012,03,12,17,19,0.10
2012,03,12,17,20,1.80
2012,03,12,17,21,2.70
2012,03,12,17,22,4.70
2012,03,12,17,23,2.00
2012,03,12,17,24,0.10
2012,03,12,17,25,2.50
2012,03,12,17,26,1.00
2012,03,12,17,27,4.80
2012,03,12,17,28,4.80
2012,03,12,17,29,4.20
2012,03,12,17,30,3.90
2012,03,12,17,31,0.20